"TOA5","AWS1","CR1000","7964","CR1000.Std.14","CPU:AWS1_114.CR1","64363","TBL110"
"TIMESTAMP","RECORD","Wind_spd_WVc(1)","Wind_spd_WVc(2)","Air_Temp_Avg","Humidity_Avg","SW_upper_Wm2_Avg","Rain_Tot","Press_Avg","Issui_Tot","Depth_cm","SR50A_Raw","Quality","Ground_Temp_Avg(1)","Ground_Temp_Avg(2)","SW_lower_Wm2_Avg","Albedo_Avg","SWC_per(1)","SWC_per(2)","Period(1)","Period(2)"
"TS","RN","","","","","","","","","","","","","","","","","","",""
"","","WVc","WVc","Avg","Avg","Avg","Tot","Avg","Tot","Smp","Smp","Smp","Avg","Avg","Avg","Avg","Smp","Smp","Smp","Smp"
"2017-05-01 00:00:00",286045,0.389,201.9,8.3,66.21,0,0,864.4602,0,-4.395,3.173,193,7.049,5.437,0.4207829,0,51.33,59.32,33.62,35.52
"2017-05-01 00:10:00",286046,0.326,197.2,8.84,63.89,0,0,864.4599,0,-4.454,3.177,195,7,5.406,0.5875796,0,51.33,59.38,33.62,35.54
"2017-05-01 00:20:00",286047,0.283,191.2,8.65,64.93,0,0,864.3962,0,-4.907,3.18,180,7.02,5.371,0.2350319,0,51.33,59.32,33.62,35.52
"2017-05-01 00:30:00",286048,0.294,189.1,8.4,66.31,0,0,864.2086,0,-4.345,3.173,179,6.915,5.437,0.03790836,0,51.33,59.32,33.62,35.52
"2017-05-01 00:40:00",286049,0.028,187.5,9.39,62.68,0,0,864.2044,0,-5.156,3.18,197,6.909,5.438,0.7354223,0,51.38,59.32,33.64,35.52
"2017-05-01 00:50:00",286050,0.427,189.6,8.62,66.55,0,0,864.1303,0,-5.463,3.184,187,6.898,5.437,0.1175159,0,51.33,59.32,33.62,35.52
"2017-05-01 01:00:00",286051,0.366,175.8,8.47,67.73,0,0,863.8996,0,-5.415,3.185,181,6.873,5.437,0.01516335,0,51.33,59.38,33.62,35.54
"2017-05-01 01:10:00",286052,0.345,165.1,8.46,68.03,0,0,863.6904,0,-4.855,3.179,189,6.823,5.437,0,0,51.33,59.32,33.62,35.52
"2017-05-01 01:20:00",286053,0.065,146.4,8.89,66.35,0,0,863.6272,0,-4.84,3.173,192,6.822,5.446,0.2577769,0,51.33,59.32,33.62,35.52
"2017-05-01 01:30:00",286054,0.031,187.4,9.92,60.96,0,0,863.5659,0,-5.453,3.18,194,6.793,5.476,0.9173824,0,51.38,59.32,33.64,35.52
"2017-05-01 01:40:00",286055,0.299,173.9,8.86,66.23,0,0,863.4373,0,-4.93,3.179,193,6.734,5.5,0,0,51.33,59.26,33.62,35.51
"2017-05-01 01:50:00",286056,0.155,182.1,8.33,68.35,0,0,863.5635,0,-5.063,3.183,188,6.736,5.482,0,0,51.38,59.32,33.64,35.52
"2017-05-01 02:00:00",286057,0.437,182.7,8.18,68.47,0,0,863.4756,0,-4.963,3.183,193,6.754,5.496,0,0,51.33,59.32,33.62,35.52
"2017-05-01 02:10:00",286058,0.22,190.4,8.22,67.43,0,0,863.3846,0,-4.756,3.179,197,6.774,5.515,0,0,51.33,59.26,33.62,35.51
"2017-05-01 02:20:00",286059,0.255,197.3,8.75,64.98,0,0,863.3907,0,-5.053,3.179,187,6.655,5.522,0.2160777,0,51.33,59.32,33.62,35.52
"2017-05-01 02:30:00",286060,0.231,171.7,8.48,66.52,0,0,863.4303,0,-5.064,3.184,195,6.65,5.523,0,0,51.33,59.26,33.62,35.51
"2017-05-01 02:40:00",286061,0.23,151.2,8.06,68.27,0,0,863.4217,0,-4.699,3.177,193,6.648,5.52,0.07581576,0,51.33,59.26,33.62,35.51
"2017-05-01 02:50:00",286062,0.142,163.9,8.16,67.6,0,0,863.4818,0,-4.737,3.182,195,6.621,5.521,0.06065268,0,51.38,59.32,33.64,35.52
"2017-05-01 03:00:00",286063,0.316,185,8.22,67.26,0,0,863.454,0,-5.108,3.181,193,6.562,5.521,0.3032661,0,51.33,59.26,33.62,35.51
"2017-05-01 03:10:00",286064,0.126,186.9,8.55,65.88,0,0,863.5974,0,-4.7,3.176,197,6.566,5.517,0.1402608,0,51.33,59.32,33.62,35.52
"2017-05-01 03:20:00",286065,0.052,186.9,9.14,63.72,0,0,863.797,0,-5.56,3.183,193,6.617,5.519,0.7278405,0,51.38,59.26,33.64,35.51
"2017-05-01 03:30:00",286066,0.087,186.8,8.4,66.98,0,0,863.9003,0,-4.885,3.181,193,6.616,5.517,0.007581673,0,51.33,59.26,33.62,35.51
"2017-05-01 03:40:00",286067,0.229,186.9,8.54,66.34,0,0,863.8976,0,-4.85,3.177,192,6.494,5.502,0.3032669,0,51.38,59.32,33.64,35.52
"2017-05-01 03:50:00",286068,0.064,187.1,9.14,63.35,0.02358976,0,863.9323,0,-4.742,3.173,193,6.476,5.499,0.6406513,0.386,51.38,59.32,33.64,35.52
"2017-05-01 04:00:00",286069,0.072,91.4,9.62,60.79,0,0,864.1077,0,-5.198,3.177,192,6.476,5.516,0.6861414,0,51.33,59.32,33.62,35.52
"2017-05-01 04:10:00",286070,0,0,9.54,61.07,0,0,864.0714,0,-5.124,3.177,192,6.475,5.52,0.1364701,0,51.33,59.32,33.62,35.52
"2017-05-01 04:20:00",286071,0.045,166.6,9.26,62.83,0,0,864.1175,0,-5.054,3.18,194,6.425,5.522,0,0,51.38,59.32,33.64,35.52
"2017-05-01 04:30:00",286072,0.115,201.4,8.71,65.15,0,0,864.1106,0,-4.748,3.177,194,6.379,5.517,0,0,51.33,59.26,33.62,35.51
"2017-05-01 04:40:00",286073,0.023,210.5,8.98,63.25,0.01965735,0,864.0135,0,-4.941,3.176,198,6.382,5.507,0.174372,0.177,51.38,59.26,33.64,35.51
"2017-05-01 04:50:00",286074,0.093,210.4,9.09,63.34,0.2162313,0,864.121,0,-4.807,3.181,194,6.381,5.483,0.2880929,0.9,51.33,59.26,33.62,35.51
"2017-05-01 05:00:00",286075,0.004,210.4,8.45,65.86,0.444269,0,864.22,0,-4.596,3.175,192,6.393,5.493,0.08339752,0.051,51.33,59.26,33.62,35.51
"2017-05-01 05:10:00",286076,0.332,350.7,9.13,63.79,4.721835,0,864.3738,0,-5.093,3.176,189,6.417,5.498,1.732394,0.361,51.38,59.26,33.64,35.51
"2017-05-01 05:20:00",286077,0.96,302.5,9.62,61.27,8.547169,0,864.4791,0,-4.682,3.171,179,6.376,5.51,2.244128,0.275,51.38,59.26,33.64,35.51
"2017-05-01 05:30:00",286078,0.406,251.9,9.57,61.71,15.11627,0,864.6117,0,-4.73,3.173,186,6.339,5.508,2.736835,0.183,51.38,59.26,33.64,35.51
"2017-05-01 05:40:00",286079,0.066,311,9.28,63.57,27.67966,0,864.6138,0,-4.318,3.171,191,6.28,5.491,4.628122,0.167,51.33,59.26,33.62,35.51
"2017-05-01 05:50:00",286080,0.315,278.8,8.88,65.28,42.43124,0,864.7255,0,-4.471,3.174,185,6.261,5.458,7.227977,0.17,51.38,59.26,33.64,35.51
"2017-05-01 06:00:00",286081,0.235,174.5,8.66,67.77,30.99896,0,864.9024,0,-4.418,3.175,192,6.253,5.446,4.798296,0.153,51.38,59.26,33.64,35.51
"2017-05-01 06:10:00",286082,0.447,115,8.37,68.61,16.90674,0,864.6496,0,-4.63,3.179,188,6.253,5.423,2.255123,0.133,51.33,59.26,33.62,35.51
"2017-05-01 06:20:00",286083,1.334,170.6,8.41,67.42,23.29097,0,864.1483,0,-5.743,3.188,178,6.261,5.403,3.911485,0.168,51.33,59.26,33.62,35.51
"2017-05-01 06:30:00",286084,1.035,153.3,8.6,65.75,35.79132,0,864.121,0,-4.572,3.175,192,6.289,5.399,6.105989,0.171,51.33,59.26,33.62,35.51
"2017-05-01 06:40:00",286085,0.613,347.4,8.96,63.32,36.73489,0,864.241,0,-4.619,3.174,197,6.292,5.395,6.22351,0.169,51.33,59.26,33.62,35.51
"2017-05-01 06:50:00",286086,0.425,165.9,9.11,63.34,44.5293,0,864.3632,0,-4.97,3.177,184,6.233,5.395,7.891074,0.177,51.33,59.26,33.62,35.51
"2017-05-01 07:00:00",286087,0.14,121.7,9.03,67.35,102.4833,0,864.3759,0,-4.66,3.175,196,6.169,5.381,17.70318,0.173,51.33,59.26,33.62,35.51
"2017-05-01 07:10:00",286088,0.427,177.6,9.03,66.93,87.86147,0,864.5991,0,-4.37,3.17,186,6.157,5.37,14.70095,0.166,51.38,59.26,33.64,35.51
"2017-05-01 07:20:00",286089,0.53,126.7,8.71,67.71,53.54091,0,864.6812,0,-4.047,3.172,195,6.139,5.36,7.973586,0.148,51.38,59.26,33.64,35.51
"2017-05-01 07:30:00",286090,0.691,139.4,8.3,69.24,52.33266,0,864.6981,0,-4.556,3.179,197,6.131,5.352,8.121131,0.154,51.38,59.2,33.64,35.5
"2017-05-01 07:40:00",286091,0.51,183.1,8.45,68.62,44.8645,0,864.6138,0,-4.571,3.175,192,6.128,5.349,7.105439,0.159,51.33,59.26,33.62,35.51
"2017-05-01 07:50:00",286092,0.211,65.28,9.02,66.14,49.90686,0,864.6517,0,-4.335,3.17,196,6.127,5.348,8.462067,0.169,51.38,59.2,33.64,35.5
"2017-05-01 08:00:00",286093,0.135,114.2,9.4,64.88,40.98111,0,864.6285,0,-4.433,3.17,194,6.126,5.347,6.639283,0.162,51.38,59.2,33.64,35.5
"2017-05-01 08:10:00",286094,0.05,35.86,9.42,66.3,23.69177,0,864.8856,0,-5.046,3.177,176,6.126,5.347,3.895652,0.165,51.38,59.2,33.64,35.5
"2017-05-01 08:20:00",286095,0.412,59.81,9.03,70.33,8.438326,0,865.0961,0,-4.95,3.178,172,6.126,5.347,1.936457,0.245,51.38,59.26,33.64,35.51
"2017-05-01 08:30:00",286096,0.342,35.87,8.22,80.8,7.778038,0.5,865.1867,0,-4.381,3.179,175,6.126,5.347,1.648452,0.229,51.33,59.2,33.62,35.5
"2017-05-01 08:40:00",286097,0.105,143.1,7.711,87.3,37.53817,0,865.0056,0,-4.662,3.183,194,6.132,5.359,5.771476,0.159,51.33,59.2,33.62,35.5
"2017-05-01 08:50:00",286098,0.438,142.1,7.407,100,68.34066,0,864.7507,0,-4.616,3.183,194,6.155,5.384,9.807461,0.144,51.38,59.2,33.64,35.5
"2017-05-01 09:00:00",286099,0.339,139.5,7.734,94.4,203.9654,0,864.3885,0,-4.577,3.178,184,6.165,5.371,31.29696,0.154,51.33,59.2,33.62,35.5
"2017-05-01 09:10:00",286100,0.348,96.8,8.62,81.9,148.593,0,864.4706,0,-4.577,3.175,190,6.177,5.383,22.53311,0.151,51.38,59.2,33.64,35.5
"2017-05-01 09:20:00",286101,0.13,282.7,8.78,82,87.14844,0,864.7423,0,-4.657,3.177,194,6.181,5.364,12.98565,0.149,51.33,59.2,33.62,35.5
"2017-05-01 09:30:00",286102,0.79,128.9,8.81,86.9,140.1544,0,864.0768,0,-4.676,3.176,186,6.179,5.389,21.16124,0.151,51.33,59.2,33.62,35.5
"2017-05-01 09:40:00",286103,1.191,157.3,9.45,77.8,501.9028,0,863.7229,0,-4.394,3.165,186,6.171,5.386,73.45742,0.147,51.33,59.2,33.62,35.5
"2017-05-01 09:50:00",286104,1.12,136.5,10.45,69.32,531.9553,0,864.043,0,-4.728,3.165,181,6.117,5.383,81.31155,0.153,51.38,59.2,33.64,35.5
"2017-05-01 10:00:00",286105,0.815,139.5,10.67,67.16,271.7249,0,864.0472,0,-4.217,3.162,185,6.105,5.362,43.37014,0.159,51.38,59.14,33.64,35.48
"2017-05-01 10:10:00",286106,0.487,148,10.76,65.26,286.3084,0,864.062,0,-4.153,3.159,191,6.199,5.344,46.80955,0.164,51.33,59.2,33.62,35.5
"2017-05-01 10:20:00",286107,0.225,303.5,10.95,69.87,187.7866,0,864.121,0,-4.641,3.165,195,6.197,5.281,30.28248,0.16,51.38,59.2,33.64,35.5
"2017-05-01 10:30:00",286108,0.429,261.1,10.19,79.78,56.6002,0,864.4516,0,-4.741,3.174,198,6.174,5.32,7.545003,0.079,51.33,59.2,33.62,35.5
"2017-05-01 10:40:00",286109,0.84,268,8.17,94.8,31.39514,0,864.8645,0,-4.66,3.182,187,6.208,5.347,3.353747,0.091,51.38,59.2,33.64,35.5
"2017-05-01 10:50:00",286110,0.252,171,7.602,100,16.92775,0,864.9803,0,-4.51,3.181,195,6.213,5.333,2.023617,0.12,51.33,59.2,33.62,35.5
"2017-05-01 11:00:00",286111,0.215,56.68,7.58,100,27.04037,1,865.1235,0,-4.865,3.185,182,6.213,5.306,3.368905,0.125,51.33,59.2,33.62,35.5
"2017-05-01 11:10:00",286112,0.089,122.8,7.644,100,175.3655,0,864.8034,0,-4.505,3.179,183,6.198,5.263,23.90066,0.134,51.38,59.2,33.64,35.5
"2017-05-01 11:20:00",286113,0.36,283.6,7.752,100,61.54043,0,864.8245,0,-4.841,3.185,174,6.268,5.238,7.40098,0.117,51.33,59.2,33.62,35.5
"2017-05-01 11:30:00",286114,0.325,305.6,7.42,100,20.19381,0.5,864.9403,0,-4.716,3.185,187,6.337,5.243,2.171409,0.103,51.33,59.2,33.62,35.5
"2017-05-01 11:40:00",286115,1.882,292.7,6.946,100,18.91254,0.5,865.3826,0,-4.873,3.19,185,6.337,5.261,2.273727,0.122,51.33,59.2,33.62,35.5
"2017-05-01 11:50:00",286116,1.802,319.8,6.106,99.7,20.08791,2.5,865.9639,0,-5.39,3.2,174,6.346,5.265,1.974372,0.089,51.44,59.2,33.65,35.5
"2017-05-01 12:00:00",286117,1.362,290.2,5.769,97.9,13.19166,1.5,865.9913,0,-5.261,3.199,192,6.377,5.353,1.246914,0.094,51.77,59.2,33.73,35.5
"2017-05-01 12:10:00",286118,0.795,90.3,5.745,99.8,33.29027,0.5,865.332,0,-5.276,3.199,188,6.396,5.41,4.006588,0.118,52.21,59.2,33.84,35.5
"2017-05-01 12:20:00",286119,0.543,336.1,5.999,98.7,105.2738,0,864.9343,0,-5.483,3.199,183,6.381,5.427,13.48736,0.128,52.55,59.2,33.92,35.5
"2017-05-01 12:30:00",286120,0.657,56.79,6.225,94.2,88.76729,0,864.9589,0,-5.332,3.197,188,6.387,5.433,10.75448,0.121,52.72,59.26,33.96,35.51
"2017-05-01 12:40:00",286121,0.794,354.2,6.483,88.6,125.2652,0,865.1395,0,-5.28,3.194,182,6.389,5.435,16.28539,0.128,52.83,59.26,33.99,35.51
"2017-05-01 12:50:00",286122,0.559,158.9,6.788,89.4,156.0383,0,865.0037,0,-5.482,3.196,177,6.39,5.433,20.60318,0.132,52.88,59.38,34,35.54
"2017-05-01 13:00:00",286123,0.456,71.9,6.734,91.8,133.1327,0,864.9012,0,-5.43,3.194,173,6.393,5.397,16.70243,0.125,52.88,59.44,34,35.55
"2017-05-01 13:10:00",286124,0.83,11.27,7.205,81,132.8772,0,864.7944,0,-5.376,3.191,182,6.39,5.364,16.49014,0.123,52.88,59.56,34,35.58
"2017-05-01 13:20:00",286125,0.6,300.6,7.359,80.9,71.78757,0,864.9341,0,-5.073,3.189,177,6.387,5.351,8.222324,0.11,52.83,59.61,33.99,35.59
"2017-05-01 13:30:00",286126,1.195,290.5,7.24,80.8,70.41544,0,864.9952,0,-5.277,3.192,190,6.389,5.352,8.536963,0.119,52.83,59.67,33.99,35.6
"2017-05-01 13:40:00",286127,0.907,171.5,7.054,90.6,243.1161,0,864.8405,0,-5.48,3.194,182,6.396,5.351,33.25701,0.136,52.83,59.79,33.99,35.63
"2017-05-01 13:50:00",286128,1.003,189.4,6.754,98,109.4958,0,865.0011,0,-5.381,3.195,169,6.406,5.351,13.50675,0.121,52.83,59.85,33.99,35.64
"2017-05-01 14:00:00",286129,0.617,147.1,6.654,98.9,183.0644,0,864.8344,0,-5.177,3.192,177,6.411,5.351,24.90959,0.135,52.83,59.91,33.99,35.66
"2017-05-01 14:10:00",286130,0.584,6.846,6.953,88.4,393.4104,0,864.7787,0,-4.16,3.179,196,6.422,5.354,52.9542,0.135,52.77,59.91,33.98,35.66
"2017-05-01 14:20:00",286131,0.286,231.2,7.771,85.8,257.3407,0,864.6488,0,-5.12,3.187,178,6.442,5.353,32.04394,0.122,52.83,59.97,33.99,35.67
"2017-05-01 14:30:00",286132,0.52,294.1,7.454,84.4,203.2628,0,864.6398,0,-5.07,3.188,173,6.474,5.353,26.45594,0.126,52.77,59.97,33.98,35.67
"2017-05-01 14:40:00",286133,0.277,301.4,7.705,84.9,275.6866,0,864.6324,0,-4.937,3.183,181,6.474,5.361,36.51294,0.131,52.77,60.03,33.98,35.69
"2017-05-01 14:50:00",286134,0.154,269.4,7.849,86.6,118.8465,0,864.6584,0,-5.163,3.187,170,6.471,5.35,13.7225,0.113,52.72,60.09,33.96,35.7
"2017-05-01 15:00:00",286135,0.436,38.31,7.799,90,337.2282,0,864.6666,0,-4.694,3.181,178,6.463,5.367,43.8982,0.132,52.72,60.09,33.96,35.7
"2017-05-01 15:10:00",286136,0.759,334.3,8.02,87.4,201.6775,0,864.6264,0,-4.839,3.184,181,6.51,5.399,26.8659,0.13,52.72,60.15,33.96,35.71
"2017-05-01 15:20:00",286137,1.091,307.8,7.418,88.7,49.98848,0,864.6264,0,-4.858,3.187,178,6.508,5.374,5.025643,0.094,52.72,60.15,33.96,35.71
"2017-05-01 15:30:00",286138,0.37,291.7,7.198,98.8,135.2216,0,864.6307,0,-4.825,3.187,173,6.491,5.317,19.72194,0.144,52.72,60.15,33.96,35.71
"2017-05-01 15:40:00",286139,0.655,308,7.384,87.6,247.5905,0,864.6433,0,-4.741,3.184,187,6.474,5.329,35.85755,0.144,52.66,60.21,33.95,35.73
"2017-05-01 15:50:00",286140,0.403,252.3,7.648,85.6,231.2505,0,864.6728,0,-4.916,3.183,182,6.436,5.352,35.14109,0.152,52.6,60.21,33.94,35.73
"2017-05-01 16:00:00",286141,1.399,332.6,7.702,78.1,163.2665,0,864.8729,0,-4.922,3.186,181,6.555,5.358,23.14365,0.141,52.6,60.27,33.94,35.74
"2017-05-01 16:10:00",286142,0.898,233.7,7.55,81.5,144.5136,0,864.8813,0,-4.998,3.186,170,6.568,5.356,20.67266,0.142,52.6,60.27,33.94,35.74
"2017-05-01 16:20:00",286143,0.627,299.7,7.642,78.31,92.38985,0,864.9466,0,-4.771,3.183,184,6.572,5.359,12.93056,0.139,52.6,60.27,33.94,35.74
"2017-05-01 16:30:00",286144,1.336,297.3,7.595,72.8,72.40903,0,865.1425,0,-4.295,3.179,191,6.578,5.362,9.883852,0.136,52.6,60.27,33.94,35.74
"2017-05-01 16:40:00",286145,1.038,284.1,7.627,68.4,70.44164,0,865.3362,0,-4.324,3.179,187,6.586,5.355,9.220867,0.127,52.6,60.27,33.94,35.74
"2017-05-01 16:50:00",286146,1.574,292.5,7.627,65.35,96.89497,0,865.5258,0,-4.356,3.179,187,6.596,5.359,13.03783,0.132,52.55,60.27,33.92,35.74
"2017-05-01 17:00:00",286147,1.206,294.7,7.375,63.43,99.16174,0,865.6332,0,-4.5,3.183,187,6.644,5.368,14.17959,0.142,52.55,60.27,33.92,35.74
"2017-05-01 17:10:00",286148,0.914,272.8,7.139,64.36,52.97857,0,865.6375,0,-4.46,3.184,187,6.726,5.373,6.273354,0.117,52.55,60.27,33.92,35.74
"2017-05-01 17:20:00",286149,0.953,313.9,7.099,64.97,36.54343,0,865.6816,0,-4.363,3.183,187,6.755,5.391,4.27594,0.116,52.55,60.27,33.92,35.74
"2017-05-01 17:30:00",286150,0.941,277.8,6.925,64.24,31.75153,0,865.8397,0,-4.467,3.185,179,6.769,5.395,3.912107,0.123,52.55,60.33,33.92,35.75
"2017-05-01 17:40:00",286151,1.478,298.7,6.911,60.21,29.32199,0,865.8923,0,-4.694,3.186,179,6.759,5.416,3.787035,0.129,52.55,60.33,33.92,35.75
"2017-05-01 17:50:00",286152,1.228,289,6.899,60.07,26.14137,0,865.9244,0,-4.721,3.187,187,6.728,5.422,3.404169,0.13,52.49,60.33,33.91,35.75
"2017-05-01 18:00:00",286153,0.792,270.5,6.782,63.25,21.90702,0,866.0829,0,-4.673,3.188,183,6.691,5.437,2.968225,0.135,52.49,60.33,33.91,35.75
"2017-05-01 18:10:00",286154,0.756,269.8,6.471,65.47,18.34104,0,866.2103,0,-4.651,3.19,179,6.655,5.437,2.335155,0.127,52.49,60.33,33.91,35.75
"2017-05-01 18:20:00",286155,1.027,300.7,6.379,67.12,11.53146,0,866.2258,0,-4.675,3.19,179,6.65,5.437,1.523916,0.132,52.49,60.33,33.91,35.75
"2017-05-01 18:30:00",286156,0.729,286.7,6.15,69.95,5.77556,0,866.2532,0,-4.677,3.192,174,6.65,5.438,0.7430039,0.124,52.49,60.33,33.91,35.75
"2017-05-01 18:40:00",286157,0.576,288.5,5.944,71.31,1.199146,0,866.4676,0,-4.626,3.192,174,6.697,5.437,0.06444422,0.042,52.44,60.33,33.89,35.75
"2017-05-01 18:50:00",286158,1.251,292.6,5.708,72.53,0,0,866.487,0,-4.679,3.194,180,6.715,5.437,0,0,52.44,60.33,33.89,35.75
"2017-05-01 19:00:00",286159,0.817,310.2,5.453,73.66,0,0,866.4871,0,-4.378,3.193,176,6.579,5.437,0,0,52.49,60.33,33.91,35.75
"2017-05-01 19:10:00",286160,0.075,349,5.184,74.72,0,0,866.4617,0,-4.733,3.2,189,6.589,5.437,0,0,52.44,60.33,33.89,35.75
"2017-05-01 19:20:00",286161,0.006,203.8,4.399,80.6,0,0,866.4323,0,-4.583,3.202,186,6.647,5.439,0,0,52.49,60.38,33.91,35.77
"2017-05-01 19:30:00",286162,0.054,7.367,3.949,82.6,0,0,866.4849,0,-4.432,3.202,191,6.594,5.464,0,0,52.44,60.33,33.89,35.75
"2017-05-01 19:40:00",286163,0.444,347.5,4.051,81.3,0,0,866.6977,0,-4.381,3.199,192,6.51,5.437,0.1933327,0,52.44,60.33,33.89,35.75
"2017-05-01 19:50:00",286164,1.141,311.7,4.399,81.9,0,0,866.7399,0,-4.311,3.197,190,6.551,5.452,0.1667989,0,52.44,60.38,33.89,35.77
"2017-05-01 20:00:00",286165,1.629,286.2,4.468,80.4,0,0,866.8895,0,-4.347,3.198,186,6.511,5.482,0,0,52.44,60.38,33.89,35.77
"2017-05-01 20:10:00",286166,1.341,286.4,4.272,81,0,0,866.9948,0,-4.404,3.2,191,6.505,5.511,0,0,52.38,60.38,33.88,35.77
"2017-05-01 20:20:00",286167,0.6,308.1,3.965,84.1,0,0,866.9927,0,-4.457,3.203,196,6.491,5.508,0,0,52.38,60.38,33.88,35.77
"2017-05-01 20:30:00",286168,0.265,295.8,3.611,86.8,0,0,866.9969,0,-4.461,3.204,190,6.504,5.524,0,0,52.38,60.38,33.88,35.77
"2017-05-01 20:40:00",286169,0.281,296.1,3.433,90.5,0,0,867.0464,0,-4.216,3.202,190,6.466,5.537,0,0,52.44,60.38,33.89,35.77
"2017-05-01 20:50:00",286170,0.655,306,3.54,92.1,0,0,867.2423,0,-4.474,3.204,195,6.453,5.556,0.03791866,0,52.38,60.38,33.88,35.77
"2017-05-01 21:00:00",286171,0.636,300.8,3.431,91.4,0,0,867.3054,0,-4.077,3.201,190,6.458,5.571,0,0,52.38,60.38,33.88,35.77
"2017-05-01 21:10:00",286172,1.279,288.3,3.624,88,0,0,867.4863,0,-4.885,3.208,189,6.425,5.584,0,0,52.44,60.38,33.89,35.77
"2017-05-01 21:20:00",286173,0.951,291.1,3.481,88.6,0,0,867.5465,0,-4.986,3.21,189,6.379,5.576,0,0,52.38,60.38,33.88,35.77
"2017-05-01 21:30:00",286174,0.728,277.1,3.1,93.8,0,0,867.582,0,-4.482,3.206,186,6.357,5.588,0,0,52.38,60.38,33.88,35.77
"2017-05-01 21:40:00",286175,0.649,309.8,3.161,92.3,0,0,867.7614,0,-4.457,3.206,181,6.308,5.577,0,0,52.38,60.38,33.88,35.77
"2017-05-01 21:50:00",286176,0.736,300.3,3.258,87.8,0,0,867.8346,0,-4.332,3.204,186,6.293,5.585,0,0,52.38,60.38,33.88,35.77
"2017-05-01 22:00:00",286177,0.89,343.2,3.474,81.6,0,0,867.8649,0,-4.433,3.205,189,6.283,5.589,0,0,52.38,60.38,33.88,35.77
"2017-05-01 22:10:00",286178,1.197,287.1,3.383,81.9,0,0,867.8361,0,-4.533,3.206,190,6.232,5.586,0,0,52.38,60.38,33.88,35.77
"2017-05-01 22:20:00",286179,0.701,293.9,3.118,84.3,0,0,867.8136,0,-4.533,3.208,189,6.239,5.561,0,0,52.38,60.38,33.88,35.77
"2017-05-01 22:30:00",286180,0.527,210.2,2.778,86.1,0,0,867.8348,0,-4.581,3.211,186,6.216,5.542,0,0,52.38,60.38,33.88,35.77
"2017-05-01 22:40:00",286181,0.573,283,2.65,84.7,0,0,867.8538,0,-4.381,3.207,180,6.209,5.532,0.00379213,0,52.38,60.38,33.88,35.77
"2017-05-01 22:50:00",286182,0.496,241,2.583,83,0,0,867.8749,0,-4.731,3.213,183,6.166,5.526,0.02654491,0,52.38,60.38,33.88,35.77
"2017-05-01 23:00:00",286183,0.573,239.9,2.344,85.7,0,0,867.9444,0,-5.032,3.217,177,6.136,5.526,0,0,52.38,60.38,33.88,35.77
"2017-05-01 23:10:00",286184,0.53,190.5,2.139,84,0,0,867.879,0,-4.879,3.217,177,6.097,5.526,0,0,52.38,60.38,33.88,35.77
"2017-05-01 23:20:00",286185,0.679,178.8,1.867,84.4,0,0,867.8475,0,-4.753,3.217,178,6.063,5.533,0,0,52.38,60.38,33.88,35.77
"2017-05-01 23:30:00",286186,0.52,204.5,1.914,82.6,0,0,867.8558,0,-4.729,3.215,180,6.06,5.55,0.04550556,0,52.38,60.38,33.88,35.77
"2017-05-01 23:40:00",286187,0.592,192.8,1.791,79.25,0,0,867.8432,0,-4.626,3.217,190,6.024,5.546,0,0,52.32,60.38,33.87,35.77
"2017-05-01 23:50:00",286188,0.542,183.9,1.445,81,0,0,867.9739,0,-4.975,3.222,186,5.975,5.553,0,0,52.38,60.38,33.88,35.77
